Погода в Контокали

Греция     39°38′41″N   19°51′08″E
темп.,
°C
ветер,
м/с
пор.,
м/с
влажн.,
%
обл.,
%
осадки,
мм/ч
давл.,
гПа
погр.,
м
8 марта, пн
пн823:00+10з22740 0.0 1021123
02:00+10ю12750 0.0 1020133
05:00+9ююв23829 0.0 1018114
08:00+10юв238431 0.0 1018151
11:00+13юв337390 0.0 1018732
14:00+14ю336895 0.2 1016826
17:00+14вюв016740 0.3 1015704
20:00+11ююз017970 0.3 1015202
9 марта, вт
вт923:00+11св118222 0.0 1016112
02:00+10в128217 0.0 101593
05:00+10ююв11821 0.0 101471
08:00+10в11780 0.0 101572
11:00+15вюв12590 0.0 1014490
14:00+16зюз22570 0.0 1014724
17:00+15ююз125932 0.0 1012520
20:00+12юв117466 0.0 1013129
10 марта, ср
ср1023:00+11ю2275100 0.0 1014119
02:00+11ююв2481100 0.0 1014190
05:00+11юв358764 0.2 1013239
08:00+12ююв358573 0.7 1012332
11:00+13ю4686100 1.9 1012624
14:00+14ююз578296 5.8 1012648
17:00+14з347883 4.2 1012444
20:00+12сз458892 5.8 1013185
11 марта, чт
чт1123:00+11сз5885100 0.4 1014542
02:00+10сз8118089 0.4 1015719
05:00+10сз68800 0.0 1014572
08:00+10сз688112 0.0 1016654
11:00+11сз78733 0.0 1018672
14:00+12сз88764 0.0 1018609
17:00+12сз67730 0.0 1019502
20:00+11сз57740 0.0 1021304
12 марта, пт
пт1223:00+10ссз22720 0.0 1023164
02:00+9юв11740 0.0 1024138
05:00+10ююв238042 0.0 1022232
08:00+10юв347464 0.1 1023282
11:00+13ююв356859 0.1 1024926
14:00+13ююз336665 0.1 1022926
17:00+13зюз117079 0.1 1021686
20:00+10зюз118062 0.1 1021163